Change the Weather History Date:

Sunday, September 22, 2013

  Actual Average Record
Temperature  
Mean Temperature 42 °F -  
Max Temperature 44 °F 51 °F 66 °F (2012)
Min Temperature 39 °F 37 °F 30 °F (1996)
Degree Days  
Heating Degree Days 23    
Moisture  
Dew Point 26 °F    
Average Humidity 53    
Maximum Humidity 67    
Minimum Humidity 37    
Precipitation  
Precipitation 0.00 in - - ()
Sea Level Pressure  
Sea Level Pressure 29.12 in    
Wind  
Wind Speed 7 mph (NE)    
Max Wind Speed 14 mph    
Max Gust Speed 20 mph    
Visibility 10 miles    
Events      
Averages and records for this station are not official NWS values.
T = Trace of Precipitation, MM = Missing Value Source: NWS Daily Summary

Daily Weather History Graph

Daily Weather History Graph

Search for Another Location

Airport or City:

Trip Planner

Search our weather history database for the weather conditions in past years. The results will help you decide how hot, cold, wet, or windy it might be!

Date:

Astronomy

Sep. 22, 2013 Rise Set
Actual Time 7:44 AM AKDT 7:57 PM AKDT
Civil Twilight 7:01 AM AKDT 8:41 PM AKDT
Nautical Twilight 6:08 AM AKDT 9:33 PM AKDT
Astronomical Twilight 5:11 AM AKDT 10:30 PM AKDT
Moon 8:41 PM AKDT (9/22) 12:24 PM AKDT (9/22)
Length of Visible Light 13h 39m
Length of Day
12h 13m
Waning Gibbous, 87% of the Moon is Illuminated
Sep 22
Waning Gibbous
Sep 26
Last Quarter
Oct 4
New
Oct 11
First Quarter
Oct 18
Full

Hourly Weather History & Observations

Time (AKDT) Temp. Windchill Dew Point Humidity Pressure Visibility Wind Dir Wind Speed Gust Speed Precip Events Conditions
12:53 AM 45.0 °F 40.6 °F 27.0 °F 49% 28.95 in 10.0 mi NNW 8.1 mph - N/A   Overcast
1:53 AM 43.0 °F 39.5 °F 25.0 °F 49% 28.95 in 10.0 mi NNE 5.8 mph - N/A   Overcast
2:53 AM 43.0 °F 39.5 °F 24.1 °F 47% 28.96 in 10.0 mi North 5.8 mph - N/A   Overcast
3:53 AM 42.1 °F 37.7 °F 21.9 °F 45% 28.98 in 10.0 mi North 6.9 mph - N/A   Overcast
4:53 AM 42.1 °F 37.1 °F 21.0 °F 43% 28.99 in 10.0 mi North 8.1 mph - N/A   Overcast
5:53 AM 42.1 °F 38.4 °F 19.9 °F 41% 29.00 in 10.0 mi North 5.8 mph - N/A   Overcast
6:53 AM 42.1 °F 37.1 °F 19.9 °F 41% 29.02 in 10.0 mi North 8.1 mph - N/A   Overcast
7:53 AM 39.0 °F 35.7 °F 26.1 °F 60% 29.03 in 7.0 mi East 4.6 mph - N/A   Overcast
8:53 AM 39.0 °F 35.7 °F 27.0 °F 62% 29.06 in 10.0 mi East 4.6 mph - N/A   Overcast
9:53 AM 41.0 °F 39.0 °F 25.0 °F 53% 29.08 in 10.0 mi Variable 3.5 mph - N/A   Overcast
10:53 AM 39.0 °F 34.0 °F 28.9 °F 67% 29.10 in 10.0 mi East 6.9 mph - N/A   Overcast
11:53 AM 39.9 °F 35.8 °F 28.9 °F 65% 29.11 in 10.0 mi ESE 5.8 mph - N/A   Overcast
12:53 PM 43.0 °F 41.3 °F 27.0 °F 53% 29.13 in 10.0 mi ENE 3.5 mph - N/A   Overcast
1:53 PM 42.1 °F 37.1 °F 30.0 °F 62% 29.14 in 10.0 mi East 8.1 mph - N/A   Overcast
2:53 PM 42.1 °F 38.4 °F 30.0 °F 62% 29.16 in 10.0 mi East 5.8 mph - N/A   Overcast
3:53 PM 43.0 °F 41.3 °F 30.0 °F 60% 29.18 in 10.0 mi ESE 3.5 mph - N/A   Overcast
4:53 PM 42.1 °F 38.4 °F 30.9 °F 65% 29.18 in 10.0 mi SE 5.8 mph - N/A   Overcast
5:53 PM 43.0 °F 39.5 °F 28.9 °F 58% 29.21 in 10.0 mi East 5.8 mph - N/A   Overcast
6:53 PM 44.1 °F 37.4 °F 25.0 °F 47% 29.22 in 10.0 mi NNW 13.8 mph 19.6 mph N/A   Overcast
7:53 PM 42.1 °F 37.1 °F 28.9 °F 60% 29.24 in 10.0 mi NNE 8.1 mph - 0.00 in   Mostly Cloudy
8:53 PM 44.1 °F 39.0 °F 24.1 °F 45% 29.26 in 10.0 mi North 9.2 mph 19.6 mph 0.00 in   Overcast
9:53 PM 42.1 °F 38.4 °F 27.0 °F 55% 29.27 in 10.0 mi Variable 5.8 mph - N/A   Overcast
10:53 PM 43.0 °F 37.7 °F 19.0 °F 38% 29.29 in 10.0 mi NNW 9.2 mph 18.4 mph N/A   Overcast
11:53 PM 42.1 °F 37.1 °F 17.1 °F 37% 29.30 in 10.0 mi NNW 8.1 mph - N/A   Overcast